Regional Weather Roundup
Issued by NWS

Home | Current Version | Previous Version | Text Only | Print | Product List | Glossary On
Versions: 1 2 3 4 5 6 7 8 9 10 11 12 13 14 15 16 17 18 19 20 21 22 23 24 25 26 27 28 29 30 31 32 33 34 35 36 37 38 39 40 41 42 43 44 45 46 47 48 49 50
619
ASUS43 KTOP 251759
RWRKS

WEATHER ROUNDUP FOR KANSAS
NATIONAL WEATHER SERVICE GOODLAND KS
100 PM CDT TUE APR 25 2017

NOTE:  "FAIR" INDICATES FEW OR NO CLOUDS BELOW 12,000 FEET WITH NO
SIGNIFICANT WEATHER AND/OR OBSTRUCTIONS TO VISIBILITY.

KSZ001>006-013>018-027>032-041>047-251900-
NORTHWEST KANSAS

CITY           SKY/WX    TMP DP  RH WIND       PRES   REMARKS
GOODLAND       CLOUDY    55  43  63 E6        29.55F
6HR MIN TEMP:  47; 6HR MAX TEMP:  55;

HAYS           CLOUDY    53  44  71 N17       29.51R
HILL CITY      CLOUDY    58  44  60 N17       29.53F
6HR MIN TEMP:  49; 6HR MAX TEMP:  58;

RUSSELL        CLOUDY    55  44  66 N16       29.49R
6HR MIN TEMP:  50; 6HR MAX TEMP:  55;

$$

KSZ061>065-074>080-084>089-251900-
SOUTHWEST KANSAS

CITY           SKY/WX    TMP DP  RH WIND       PRES   REMARKS
DODGE CITY     CLOUDY    57  46  66 N18       29.48S
6HR MIN TEMP:  42; 6HR MAX TEMP:  58;

ELKHART          N/A     53  42  66 N10         N/A
GARDEN CITY    CLOUDY    54  45  71 N18       29.52S
6HR MIN TEMP:  45; 6HR MAX TEMP:  54;

GREAT BEND     PTSUNNY   57  48  72 N16       29.48R
$$

KSZ066>073-081>083-090>101-251900-
SOUTHEAST KANSAS

CITY           SKY/WX    TMP DP  RH WIND       PRES   REMARKS
CHANUTE        MOSUNNY   74  58  57 S17G30    29.41R
6HR MIN TEMP:  60; 6HR MAX TEMP:  75;

COFFEYVILLE    MOSUNNY   74  58  57 S22       29.41F
6HR MIN TEMP:  58; 6HR MAX TEMP:  75;

HUTCHINSON     CLOUDY    67  53  61 N16       29.41S
6HR MIN TEMP:  56; 6HR MAX TEMP:  69;

MEDICINE LODGE   N/A     66  53  63 N16       29.41S
NEWTON         CLOUDY    69  56  62 NW7       29.41S
PARSONS        MOSUNNY   75  58  55 S15G28    29.42S
6HR MIN TEMP:  60; 6HR MAX TEMP:  75;

WICHITA INTL   CLOUDY    72  56  57 W6        29.39S
6HR MIN TEMP:  58; 6HR MAX TEMP:  75;

WICHITA JABRA  CLOUDY    73  57  57 MISG      29.39S
6HR MIN TEMP:  58; 6HR MAX TEMP:  75;

WINFIELD       CLOUDY    77  59  53 S9        29.39R
6HR MIN TEMP:  58; 6HR MAX TEMP:  77;

$$

KSZ007>012-019>026-033>040-048>060-102>105-251900-
NORTHEAST KANSAS

CITY           SKY/WX    TMP DP  RH WIND       PRES   REMARKS
CONCORDIA      CLOUDY    53  44  71 N16G24    29.48R
6HR MIN TEMP:  51; 6HR MAX TEMP:  57;

EMPORIA        CLOUDY    72  57  59 SW10      29.39F
6HR MIN TEMP:  58; 6HR MAX TEMP:  73;

LAWRENCE       CLOUDY    71  55  56 S9        29.41S
6HR MIN TEMP:  57; 6HR MAX TEMP:  72;

MANHATTAN      CLOUDY    67  53  61 N5        29.41S
6HR MIN TEMP:  59; 6HR MAX TEMP:  69;

OLATHE IND     CLOUDY    71  55  56 S12G22    29.42S
6HR MIN TEMP:  58; 6HR MAX TEMP:  73;

OLATHE EXE     CLOUDY    70  56  61 S12G18    29.41F
6HR MIN TEMP:  56; 6HR MAX TEMP:  71;

SALINA         CLOUDY    65  54  67 NW16      29.43S
6HR MIN TEMP:  61; 6HR MAX TEMP:  67;

TOPEKA BILLARD CLOUDY    69  55  60 SW10      29.40S
6HR MIN TEMP:  58; 6HR MAX TEMP:  71;

TOPEKA FORBES  CLOUDY    70  55  59 SW10      29.41R
6HR MIN TEMP:  59; 6HR MAX TEMP:  73;

$$




USA.gov is the U.S. government's official web portal to all federal, state and local government web resources and services.